Погода в Минске

Погода в Минске : погода сейчас, прогноз погоды и архив. Всё, что Вы хотите узнать о погоде в Минске!

Хотите узнать прогноз погоды Минск? Тогда Вам сюда: Погода Минск

Поиск расширенной информации на нашем сайте:

Другие новости

Новости СМИ2

Главная страница сайта

Новости сайта

03.07.2017

Напоминаем, что на нашем специализированном сайте Метеоцентр.Азия вы можете получить высокодетализированные автоматические прогнозы погоды по пунктам России, СНГ и мира в авиационном формате (включающие направление и скорость ветра, видимость, явления погоды, количество и форму облачности, нижнюю и верхнюю границу облачности).


Погода в Минске - сегодня

Время (UTC), дата Ветер
(°,м/с) 
Видим.   Явления Облачность Т
(°С)
Тd
(°С)
f(%) Тe
(°С)
Pmin
(гПа)
dP
(гПа)
Po
(мм)
O2
(г/м3)
Тmin Tmax R s Состояние
почвы
12 19.07.18 300 (СЗ) 18000 м    9/8 360 м средняя 
[Sc|Ac und]
+22.8 +17.2 71 +36  1003.9  -0.7  734  269           
15 19.07.18 330 (СЗ) 1{13}  23000 м  {гроза, ливн. осадки}  9/8 330 м средняя 
[Sc|Ac und]
+20.3 +19 92 +38  1004.3  0.1  734  271         
18 19.07.18 030 (СВ) 24000 м  {гроза, ливн. осадки}  10/10 330 м 
[Sc]
+20 +18.4 91 +36  1004.9  0.6  734  271    +24.4     
21 19.07.18 330 (СЗ) 13000 м    9/8 420 м средняя 
[Sc|Ac und]
+18.2 +17.5 96 +34  1005.3  0.2  734  273           
00 20.07.18 тихо ()   9000 м  дымка  10/10 450 м 
[Sc]
+18.7 +17.9 95 +34  1005.4  0.2  735  273           
03 20.07.18 340 (С) 9000 м  дымка  10/10 330 м 
[Sc]
+18.6 +17.7 95 +34  1005.2  -0.3  734  273           
06 20.07.18 330 (СЗ) 13000 м  {дождь}  10/10 330 м 
[Sc]
+19.2 +17.6 90 +34  1005.5  0.4  735  273  +18    0.0     
09 20.07.18 360 (С) 13000 м    10/10 360 м 
[Sc]
+21 +17.6 81 +35  1006  0.7  735  271           
12 20.07.18 290 (З) 20000 м    6/6 800 м средняя 
[Sc|Ac trans]
+24.7 +17.7 65 +39  1005.1  -0.5  735  268           
15 20.07.18 330 (СЗ) 18000 м    6/4 930 м средняя, верхняя 
[Sc|Ac trans|Ci fib]
+26.4 +17.4 58 +40  1004.4  -0.5  734  266           
18 20.07.18 330 (СЗ) 18000 м  {гроза, ливн. осадки}  8/8 750 м средняя, верхняя 
[Sc|Ac trans|Ci fib]
+22.6 +18 75 +38  1006.1  1.2  735  269    +26.4  0.7     
21 20.07.18 310 (СЗ) 20000 м  {гроза}  8/0 средняя 
[Ac trans]
+20.5 +17.2 81 +34  1006.1  -0.2  735  272           
00 21.07.18 тихо ()   16000 м  {гроза}  8/0 средняя 
[Ac trans]
+18.8 +16.9 89 +32  1006.5  0.2  735  273           
03 21.07.18 330 (СЗ) 13000 м    9/0 средняя, верхняя 
[Ac lent|Ci fib]
+18.7 +16.8 89 +33  1007  0.5  736  274           
06 21.07.18 320 (СЗ) 14000 м    9/0 верхняя 
[Cs]
+20.1 +17.1 83 +33  1007.2  0.3  736  272  +18.5         
09 21.07.18 330 (СЗ) 21000 м    8/3 600 м верхняя 
[Sc|Ci fib]
+25.3 +17.4 62 +39  1007.2  0.6  736  268           
12 21.07.18 300 (СЗ) 20000 м    9/6 540 м средняя, верхняя 
[Sc|Ac trans|Ci fib]
+24.5 +17.6 65 +39  1006.8  -0.5  736  268           
15 21.07.18 310 (СЗ) 17000 м  гроза без осадков  10/6 600 м кучево-дожд., средняя 
[Cb calv|Ac trans]
+24 +17.5 67 +38  1007.5  0.6  736  269           
18 21.07.18 320 (СЗ) 18000 м  {гроза}  9/0 средняя, верхняя 
[Ac trans|Ci fib]
+21.7 +17.3 76 +35  1008.2  0.5  737  271    +27       
21 21.07.18 300 (СЗ) 15000 м    3/0 верхняя 
[Ci fib]
+20.2 +17.4 84 +34  1008.5  0.1  737  273           
00 22.07.18 320 (СЗ) 15000 м    ясно 
+19 +16.7 87 +33  1008.3  -0.3  737  274           
03 22.07.18 330 (СЗ) 14000 м    8/0 средняя 
[Ac trans]
+18.5 +16.5 88 +32  1008.3  737  274           
06 22.07.18 340 (С) 17000 м    9/0 средняя 
[Ac trans]
+20.3 +16.6 79 +32  1008.1  -0.1  737  273  +18.4         
09 22.07.18 тихо ()   14000 м  слаб. ливневой дождь  10/8 630 м средняя 
[Sc|Ac trans]
+21.5 +18 80 +36  1008.9  0.9  737  271      0.4     
12 22.07.18 310 (СЗ) 16000 м  {ливн. осадки}  8/5 630 м средняя 
[Sc|Ac trans]
+23.5 +18.7 74 +40  1007.2  -1.4  736  269         
Время (UTC), дата Ветер
(°,м/с) 
Видим.   Явления Облачность Т
(°С)
Тd
(°С)
f(%) Тe
(°С)
Pmin
(гПа)
dP
(гПа)
Po
(мм)
O2
(г/м3)
Тmin Tmax R s Состояние
почвы

Для получения пояснительной информации подведите курсор к названию столбца.

ПОГОДА в Минске - архив

Всё, что Вы хотите узнать о погоде в Минске - удобно и подробно!

Выберите нужную дату (начиная с 1 января 2015* года) и нажмите кнопку "Найти".
Будут отображены архивные сводки погоды по пункту Минск, начиная с указанной даты.


Отображать данные в формате CSV (для использования в таблицах Excel)


Внимание! Наш архив погоды предназначен исключительно для личного некоммерческого использования в познавательных целях. Если Вам необходимы официальные справки о состоянии погоды (для производственных, юридических, коммерческих и т.п. целей), обращайтесь в органы Росгидромета.

*Примечание: данная дата относится к архиву по метеостанциям СССР (Россия, СНГ, Балтия).
Архив по метеостанциям Зарубежной Европы и Азии (кроме Китая) хранится 10 дней, по другим регионам земного шара (Китай, Африка, Америка, Австралия, Океания) - 1 день.

Минск - район местоположения метеостанции


Название, широта, долгота, высота метеостанции:
Минск (город) 53.9°ш. 27.6°д. 231 м над ур. моря [Беларусь]

Дополнительная информация

В oтличие oт бoльшинства пoгoдных сайтoв мы публикуем пoдрoбную метеoинфoрмацию в детальнoм прoфессиoнальнoм фoрмате.

Характеристики температуры и влажнoсти вoздуха измеряются на высoте 2 м в тени вдали oт зданий и деревьев.
Скoрoсть ветра измеряется на высoте 10 м (на урoвне рoста челoвека скoрoсть ветра ниже в 1.5-2 раза). Если метеoстанция нахoдится в гoрoде или в лесу, тo скoрoсть ветра занижена на 2-4 м/с пo сравнению с oткрытым местoм. Скoрoсть ветра над акватoриями крупных рек и oзёр, а также на вершинах хoлмoв на 2-5 м/с выше, чем в oбычных услoвиях.
Атмoсфернoе давление в разных тoчках местнoсти мoжет значительнo oтличаться oт давления на метеoстанции, в зависимoсти oт услoвий рельефа (при пoдъёме на 10 м давление пoнижается примернo на 1 мм рт.ст.).